EDV5091 KSYR-KDTW

Flight info

Callsign EDV5091
Flight time N/A
Altitude 38000
Route SYR DINES DONEO TPGUN2
Aircraft CRJ9/M-SDFGIRWY/S

Departure

Time 2026-04-29 19:28
Airport Syracuse Hancock International Airport (KSYR)

Arrival

Time N/A
Airport Detroit Metropolitan Wayne County Airport (KDTW)
Time Latitude Longitude Altitude Speed Heading
2026-04-29 19:01 43.11541 -76.10947 418 ft 0 kts 250°
2026-04-29 19:04 43.11540 -76.10951 418 ft 0 kts 220°
2026-04-29 19:04 43.11531 -76.10961 439 ft 0 kts 220°
2026-04-29 19:04 43.11531 -76.10962 439 ft 0 kts 220°
2026-04-29 19:09 43.11530 -76.10962 418 ft 0 kts 220°
2026-04-29 19:17 43.11540 -76.10951 414 ft 4 kts 222°
2026-04-29 19:17 43.11559 -76.10926 409 ft 4 kts 220°
2026-04-29 19:18 43.11580 -76.10909 409 ft 4 kts 174°
2026-04-29 19:18 43.11588 -76.10911 411 ft 1 kts 149°
2026-04-29 19:18 43.11591 -76.10914 412 ft 0 kts 149°
2026-04-29 19:20 43.11564 -76.10891 417 ft 12 kts 148°
2026-04-29 19:20 43.11479 -76.10854 414 ft 14 kts 182°
2026-04-29 19:21 43.11376 -76.10841 414 ft 15 kts 169°
2026-04-29 19:21 43.11260 -76.10826 412 ft 19 kts 180°
2026-04-29 19:21 43.11149 -76.10822 417 ft 15 kts 178°
2026-04-29 19:21 43.11060 -76.10817 412 ft 9 kts 177°
2026-04-29 19:22 43.11004 -76.10870 418 ft 12 kts 253°
2026-04-29 19:22 43.10997 -76.11005 421 ft 15 kts 268°
2026-04-29 19:22 43.10993 -76.11140 422 ft 15 kts 268°
2026-04-29 19:22 43.10986 -76.11344 415 ft 34 kts 267°
2026-04-29 19:23 43.10978 -76.11590 417 ft 25 kts 268°
2026-04-29 19:23 43.10971 -76.11834 416 ft 26 kts 267°
2026-04-29 19:23 43.10964 -76.12039 420 ft 24 kts 267°
2026-04-29 19:23 43.10957 -76.12236 412 ft 18 kts 267°
2026-04-29 19:24 43.10952 -76.12405 425 ft 15 kts 267°
2026-04-29 19:24 43.10949 -76.12478 428 ft 6 kts 267°
2026-04-29 19:24 43.10948 -76.12527 429 ft 4 kts 265°
2026-04-29 19:24 43.10946 -76.12559 424 ft 3 kts 266°
2026-04-29 19:25 43.10945 -76.12582 428 ft 4 kts 264°
2026-04-29 19:25 43.10930 -76.12617 429 ft 0 kts 222°
2026-04-29 19:25 43.10929 -76.12619 418 ft 0 kts 214°
2026-04-29 19:26 43.10927 -76.12620 421 ft 0 kts 213°
2026-04-29 19:26 43.10920 -76.12625 425 ft 7 kts 200°
2026-04-29 19:26 43.10869 -76.12603 429 ft 9 kts 128°
2026-04-29 19:26 43.10832 -76.12512 419 ft 12 kts 116°
2026-04-29 19:27 43.10826 -76.12455 425 ft 0 kts 87°
2026-04-29 19:28 43.10837 -76.12090 418 ft 84 kts 87°
2026-04-29 19:28 43.10891 -76.10915 426 ft 158 kts 90°
2026-04-29 19:28 43.10958 -76.09244 958 ft 184 kts 89°
2026-04-29 19:28 43.11012 -76.07312 1447 ft 234 kts 91°
2026-04-29 19:29 43.11058 -76.04937 2133 ft 255 kts 90°
2026-04-29 19:29 43.11197 -76.02441 2829 ft 279 kts 87°
2026-04-29 19:29 43.11521 -75.99893 3844 ft 226 kts 79°
2026-04-29 19:29 43.11848 -75.98161 5000 ft 163 kts 83°
2026-04-29 19:30 43.12058 -75.96684 4772 ft 165 kts 88°
2026-04-29 19:30 43.12207 -75.94955 4037 ft 198 kts 90°
2026-04-29 19:30 43.12270 -75.93109 4058 ft 181 kts 95°
2026-04-29 19:30 43.12236 -75.91520 4189 ft 165 kts 100°
2026-04-29 19:31 43.12061 -75.89645 4166 ft 224 kts 105°